Location: Abliwn
(31.2080°N, 8.9159°W)
Time: 20:44:47
(UTC+00:00)

Daily predictions for brighter satellites

Satellite Brightness Start Highest point End
(mag) Time Altitude Azimuth Time Altitude Azimuth Time Altitude Azimuth
Cosmos 1825 3.7 17:59:05 10° NNW 18:02:39 41° W 18:06:13 10° SSW
NOSS 2-3 (E) 4.0 17:59:05 10° S 18:03:05 43° ESE 18:07:22 10° NE
Cosmos 1656 3.7 17:58:03 10° SSW 18:03:38 82° ESE 18:09:10 10° NNE
USA 229 DEB 4.2 17:58:36 10° SW 18:04:58 59° WNW 18:11:37 10° NNE
USA 229 4.2 17:58:42 10° SW 18:05:05 59° WNW 18:11:43 10° NNE
Cosmos 1633 4.2 18:02:51 10° NE 18:05:06 16° ENE 18:07:21 10° ESE
COSMO-SKYMED 1 3.3 18:03:10 10° NNE 18:07:06 33° E 18:11:01 10° SSE
Envisat 3.7 18:03:20 10° SE 18:07:48 32° ENE 18:12:16 10° N
Cosmos 1151 Rocket 4.5 18:05:09 10° SE 18:08:01 17° E 18:10:54 10° NE
Sich 1 3.9 18:05:46 10° NNE 18:09:32 28° E 18:13:19 10° SE
NOSS 3-1 (A) 3.2 18:05:04 10° SSW 18:10:22 88° ESE 18:16:17 10° NNE
NOSS 3-1 (C) 3.9 18:05:34 10° SW 18:10:46 53° WNW 18:16:35 10° NNE
Cosmos 1356 Rocket 3.3 18:06:59 10° S 18:11:04 72° E 18:15:13 10° NNE
NOSS 2-3 (D) 3.8 18:08:26 10° S 18:12:31 51° ESE 18:16:54 10° NE
GPS 2-04 Rocket1 3.5 18:10:13 10° SW 18:13:18 31° SSE 18:16:10 11° E
SMAP 3.1 18:11:03 10° SSE 18:15:42 90° NW 18:20:21 10° NNW
SeaSat 1 3.1 18:12:40 10° ESE 18:17:00 32° ENE 18:21:20 10° N
Lacrosse 4 Rocket 1.3 18:16:42 10° SSW 18:20:49 89° WNW 18:24:53 10° NNE
YAOGAN 6 3.7 18:18:39 10° SE 18:21:24 22° ENE 18:24:07 10° NNE
Cosmos 1869 3.8 18:17:43 10° SSW 18:21:39 63° W 18:25:33 10° N
YAOGAN 1 3.8 18:24:08 10° ESE 18:27:21 21° ENE 18:30:36 10° NNE
CCE 1 Rocket 4.1 18:24:53 10° W 18:29:02 70° S 18:34:45 13° E
Cosmos 2219 3.1 18:23:34 10° NNW 18:29:12 81° ENE 18:34:49 10° SSE
CSL-04 Rocket 4.5 18:25:50 10° SE 18:30:18 27° ENE 18:34:43 10° NNE
CZ-4 R/B 2.2 18:28:37 10° SE 18:32:18 30° ENE 18:35:56 10° NNE
CORIOLIS 4.5 18:31:43 10° S 18:37:04 70° WSW 18:42:29 10° NNW
Cosmos 1980 Rocket 2.5 18:31:53 10° S 18:37:11 43° ESE 18:42:22 11° NE
Cosmos 2112 Rocket 4.0 18:32:16 10° S 18:37:19 56° ESE 18:42:24 10° NNE
USA 116 4.4 18:37:33 10° NNE 18:42:18 59° E 18:47:26 10° S
Okean-O 2.8 18:38:57 10° S 18:43:21 76° WSW 18:47:48 10° NNW
Cosmos 1680 Rocket 3.4 18:39:20 10° SSW 18:44:31 81° ESE 18:49:45 10° NNE
Cosmos 1513 Rocket 4.5 18:39:09 10° N 18:45:30 65° E 18:51:44 10° SSE
SL-8 R/B 4.3 18:42:30 10° SSW 18:46:58 38° SE 18:49:02 26° E
Cosmos 2227 Rocket 2.1 18:43:03 10° NNW 18:48:43 70° ENE 18:54:19 10° SSE
Cosmos 2297 Rocket 2.1 18:43:08 10° NNW 18:48:48 77° ENE 18:54:26 10° SSE
FengYun 1-2 T 4.2 18:43:46 10° SSE 18:49:13 64° ENE 18:54:40 10° N
Cosmos 2034 Rocket 4.2 18:43:39 10° N 18:49:48 49° E 18:55:55 10° SSE
NOSS 2-3 (C) 4.2 18:46:18 10° SW 18:50:27 55° WNW 18:54:59 10° NNE
Cosmos 158 Rocket 4.3 18:46:15 10° S 18:51:22 47° ESE 18:55:05 18° NE
SKYMED 2 4.1 18:50:58 10° N 18:55:14 59° WNW 18:59:29 10° SSW
Cosmos 2369 4.4 18:52:58 10° SW 18:58:29 54° WNW 19:04:02 10° N
Cosmos 1933 3.7 18:57:57 10° SSE 19:01:38 39° E 19:01:38 39° E
CZ-3C R/B 3.0 19:00:40 10° WSW 19:03:53 16° SSW 19:06:09 10° SSE
Tsikada Rocket 4.0 18:57:41 10° S 19:03:56 65° E 19:10:15 10° NNE
NOAA 15 4.5 19:00:45 10° SSE 19:06:00 67° ENE 19:11:16 10° N
Delta 7925 Rocket 4.4 19:02:51 10° WSW 19:08:45 58° S 19:12:43 28° ESE
Cosmos 1816 Rocket 4.4 19:02:30 10° S 19:08:47 76° E 19:15:10 10° N
Cosmos 2228 Rocket 3.9 19:06:42 10° SSE 19:09:33 32° SE 19:09:33 32° SE
Cosmos 2360 4.4 19:05:30 10° SSW 19:11:10 73° WNW 19:16:37 11° NNE
Cosmos 2082 3.5 19:11:01 10° NNW 19:16:38 74° ENE 19:22:14 10° SSE
Cosmos 1697 Rocket 4.0 19:11:40 10° SW 19:16:55 39° WNW 19:22:12 10° N
BREEZE-M R/B 3.0 19:15:00 10° SW 19:21:02 59° SE 19:21:06 59° SE
Cosmos 1862 4.0 19:17:58 10° NNW 19:21:51 53° W 19:25:44 10° S
Delta 168 3.8 19:20:06 10° SW 19:23:17 33° S 19:23:17 33° S
ATLAS 5 CENTAUR R/B 3.4 19:19:26 10° SW 19:23:59 37° SSE 19:29:27 25° ESE
ATLAS 5 CENTAUR R/B 2.8 19:20:50 10° NW 19:27:03 71° WSW 19:33:58 10° SSE
Cosmos 1633 Rocket 4.2 19:30:33 10° NNW 19:34:42 42° W 19:38:52 10° SSW
CZ-3C R/B 4.3 19:32:56 10° S 19:35:24 18° SSE 19:35:24 18° SSE
Cosmos 1515 Rocket 4.5 19:37:59 10° SSW 19:42:14 47° W 19:44:14 27° NNW
Centaur D-1AR AC-36 4.1 19:12:54 10° WSW 19:43:00 38° S 19:45:55 29° SE
Centaur D-1A AC-31 1.9 19:40:54 10° WSW 19:43:48 49° S 19:43:48 49° S
NOAA 11 4.2 19:43:12 10° S 19:48:37 77° WSW 19:54:02 10° NNW
IUS-18 SRM-1 4.4 19:46:31 10° W 19:48:46 19° SW 19:48:46 19° SW
CZ-4 R/B 4.4 20:04:46 10° SW 20:07:17 16° W 20:09:48 10° WNW
DELTA 2 R/B (1) 4.2 20:01:47 10° WSW 20:05:58 52° WSW 20:05:58 52° WSW
SL-16 R/B 3.7 20:08:47 10° SSW 20:11:12 27° SSW 20:11:12 27° SSW
Cosmos 1980 Rocket 4.4 20:17:09 10° WSW 20:21:19 21° WNW 20:24:11 15° NNW
Cosmos 2322 Rocket 4.3 20:18:57 10° SSW 20:20:10 17° SSW 20:20:10 17° SSW
H-2A R/B 3.8 19:37:49 10° W 20:32:11 82° SSW 20:33:28 73° SE
